[[{"header":{"parameterUnit":"m.s-1","parameterCategory":1,"la1":30.2991,"la2":30.254,"lo1":-89.0895,"lo2":-89.0444,"dy":0.0017,"dx":0.0017,"nx":28,"ny":28,"refTime":"2023-09-20T03:00:00:Z","depth":0,"parameterNumber":2,"parameterNumberName":"U-component_of_WINDS"},"data":[0,0,0,0,0,0,0,0,0,0,0,0,0,0,0,0,0,0,0,0,0,0,0,0,0,0,0,0,0,0,0,0,0,0,0,0,0,0,0,0,0,0,0,0,0,0,0,0,0,0,0,0,0,0,0,0,0,0,-3.951,-3.9511,0,-3.9657,-3.9658,-3.966,-3.9618,-3.9615,-3.9612,-3.9609,-3.9765,-3.9772,-3.9779,0,0,0,0,0,0,0,0,0,0,0,0,0,-3.92,-3.9206,-3.9509,-3.9511,-3.9513,-3.9656,-3.9658,-3.966,-3.9618,-3.9614,-3.9611,-3.9607,-3.9763,-3.9771,-3.978,0,0,0,0,0,0,0,0,0,0,0,0,0,-3.9339,-3.9208,-3.9509,-3.9509,-3.9511,-3.9656,-3.9658,-3.9661,-3.9619,-3.9614,-3.961,-3.9606,-3.976,-3.977,-3.9781,-3.9937,0,0,-3.9813,-3.9817,0,0,0,0,0,0,0,0,-3.9332,-3.9351,-3.9507,-3.9509,-3.9511,-3.9614,-3.9606,-3.9754,-3.962,-3.9578,-3.9609,-3.9603,-3.9719,-3.9733,-3.977,-3.9944,-3.9951,-3.9814,-3.982,-3.9825,-3.9827,0,0,0,0,0,0,0,-3.9322,-3.9344,-3.9568,-3.951,-3.9512,-3.9504,-3.9519,-3.9634,-3.9672,-3.9581,-3.9579,-3.9596,-3.9719,-3.976,-3.9774,-3.9953,-3.9813,-3.9823,-3.9829,-3.9833,-4.0268,-4.0273,0,0,0,0,0,0,-3.931,-3.9336,-3.9563,-3.9572,-3.9408,-3.9514,-3.953,-3.9586,-3.9671,-3.9679,-3.96,-3.9594,-3.9745,-3.9761,-3.9779,-3.9972,-3.9824,-3.9834,-3.984,-4.0263,-4.027,-4.0275,0,0,0,0,0,0,-3.9303,-3.933,-3.9557,-3.9454,-3.9482,-3.9524,-3.9587,-3.9591,-3.9632,-3.9685,-3.9692,-3.9634,-3.9742,-3.9764,-3.9899,-3.9976,-3.9839,-3.9849,-4.0257,-4.0265,-4.0272,-4.0355,0,0,0,0,0,0,-3.9295,-3.9328,-3.9386,-3.9455,-3.9488,-3.9672,-3.9591,-3.9597,-3.9649,-3.9643,-3.9719,-3.9728,-3.974,-3.9883,-3.9909,-3.9988,-3.9857,-4.025,-4.0261,-4.027,-4.0346,-4.0365,-4.0381,0,0,0,0,0,-3.9284,-3.9403,-3.9389,-3.9416,-3.956,-3.9676,-3.9695,-3.9705,-3.9656,-3.9716,-3.9751,-3.9725,-3.9963,-3.9897,-3.9926,-4.001,-4.0246,-4.0258,-4.0269,-4.0338,-4.0361,-4.0381,0,0,0,0,0,0,-3.9342,-3.9412,-3.9397,-3.9542,-3.9604,-3.9669,-3.9744,-3.9728,-3.9807,-3.9797,-3.9808,-3.9826,-3.9965,-4.0,-3.9926,-4.0168,-4.0098,-4.0116,-4.014,-4.0162,-4.018,-4.017,-3.9865,0,0,0,0,0,-3.9372,-3.9458,-3.9515,-3.9638,-3.967,-3.9702,-3.9753,-3.9755,-3.982,-3.9847,-3.9891,-3.9957,-4.0047,-4.0106,-4.0192,-4.035,-4.0369,-4.0422,-4.044,-4.0454,-4.0471,-4.0563,-4.0589,-4.0314,-4.0314,-4.0314,0,0,-3.9434,-3.9483,-3.9537,-3.9651,-3.9699,-3.9792,-3.9724,-3.9824,-3.9894,-3.9862,-3.9993,-4.0028,-4.0103,-4.0252,-4.0319,-4.0285,-4.0551,-4.0469,-4.048,-4.0489,-4.0578,-4.0604,-4.0627,-4.0322,-4.0321,-4.032,0,0,-3.9596,-3.964,-3.9749,-3.9799,-3.9873,-3.9894,-3.9921,-3.9989,-4.0012,-4.0142,-4.0122,-4.0207,-4.036,-4.0416,-4.0464,-4.0652,-4.0634,-4.068,-4.0774,-4.0863,-4.0885,-4.0904,-4.0976,-4.1001,-4.0695,-4.0696,-4.0696,0,-3.9665,-3.9802,-3.9808,-3.9911,-3.9964,-3.9939,-4.0052,-4.0101,-4.0199,-4.0238,-4.0198,-4.0394,-4.0442,-4.0606,-4.0652,-4.069,-4.0725,-4.0672,-4.0881,-4.09,-4.0919,-4.0987,-4.1014,-4.0701,-4.07,-4.07,-4.0699,0,-3.9885,-3.9981,-4.0061,-4.0156,-4.0218,-4.0325,-4.0351,-4.0414,-4.0412,-4.0439,-4.0575,-4.0632,-4.0731,-4.077,-4.0768,-4.0936,-4.0913,-4.0877,-4.0807,-4.095,-4.1015,-4.1041,-4.0709,-4.0707,-4.0705,-4.0704,0,0,-4.0087,-4.0187,-4.0217,-4.0262,-4.0343,-4.0419,-4.0527,-4.0623,-4.0679,-4.0748,-4.0843,-4.0975,-4.0944,-4.0999,-4.1004,-4.1082,-4.1234,-4.1038,-4.104,-4.1076,-4.1428,-4.1457,-4.1487,-4.1221,-4.1226,-4.123,-4.1423,0,-4.026,-4.0449,-4.0459,-4.0632,-4.0724,-4.0703,-4.0799,-4.0861,-4.089,-4.0974,-4.1006,-4.1102,-4.105,-4.1084,-4.116,-4.1199,-4.1306,-4.1185,-4.1314,-4.1319,-4.1299,-4.152,-4.155,-4.173,-4.1448,-4.1452,-4.1455,0,-4.0485,-4.0562,-4.0745,-4.0817,-4.0856,-4.0941,-4.1033,-4.1111,-4.1184,-4.1199,-4.1263,-4.1258,-4.1374,-4.1299,-4.1461,-4.1379,-4.1433,-4.1461,-4.1468,-4.1483,-4.1398,-4.1546,-4.1786,-4.1815,-4.1495,-4.1491,-4.1489,0,-4.062,-4.0769,-4.0899,-4.0938,-4.1024,-4.1086,-4.1125,-4.1192,-4.1251,-4.1332,-4.1371,-4.1464,-4.1516,-4.1591,-4.1614,-4.1555,-4.1778,-4.1702,-4.1798,-4.1798,-4.1848,-4.1845,-4.2105,-4.1876,-4.1876,-4.1876,-4.1875,0,-4.0813,-4.0927,-4.0962,-4.1042,-4.117,-4.1182,-4.131,-4.1346,-4.1407,-4.1497,-4.1484,-4.1569,-4.1592,-4.1683,-4.1701,-4.1836,-4.1859,-4.1878,-4.1883,-4.1882,-4.188,-4.1919,-4.1909,-4.1883,-4.1881,-4.188,-4.1878,0,-4.0986,-4.1013,-4.1154,-4.1226,-4.1246,-4.1338,-4.1401,-4.148,-4.1508,-4.1622,-4.165,-4.1694,-4.1801,-4.183,-4.1957,-4.197,-4.2131,-4.2122,-4.2107,-4.2108,-4.2204,-4.2196,-4.2501,-4.2544,-4.2283,-4.2286,-4.2288,0,-4.1109,-4.1197,-4.1278,-4.1336,-4.1379,-4.1473,-4.1533,-4.155,-4.1614,-4.1705,-4.1775,-4.1879,-4.1964,-4.2136,-4.2182,-4.2281,-4.2277,-4.2377,-4.2292,-4.229,-4.2284,-4.228,-4.2292,-4.2394,-4.2397,-4.2399,-4.2401,0,-4.1327,-4.1337,-4.1423,-4.1516,-4.1588,-4.1662,-4.1733,-4.1782,-4.181,-4.1883,-4.1992,-4.2057,-4.2189,-4.2295,-4.2396,-4.244,-4.2428,-4.2427,-4.2456,-4.2457,-4.2447,-4.2459,-4.2155,-4.2421,-4.2419,-4.2417,-4.2416,-4.2415,-4.1482,-4.156,-4.1631,-4.1729,-4.1784,-4.1852,-4.1931,-4.197,-4.206,-4.2167,-4.2172,-4.2291,-4.2366,-4.25,-4.255,-4.2646,-4.2617,-4.2657,-4.2668,-4.2678,-4.2689,-4.2428,-4.2664,-4.2664,-4.2663,-4.2663,-4.2662,0,-4.1702,-4.1747,-4.1837,-4.1938,-4.2016,-4.1995,-4.2074,-4.2142,-4.2246,-4.2316,-4.24,-4.2528,-4.2632,-4.2687,-4.2791,-4.2858,-4.2856,-4.2886,-4.2883,-4.2894,-4.2706,-4.2673,-4.2886,-4.2886,-4.2886,-4.2886,-4.2886,-4.2886,-4.1827,-4.196,-4.1979,-4.2142,-4.2186,-4.2302,-4.235,-4.2414,-4.247,-4.2613,-4.2698,-4.2733,-4.2799,-4.2909,-4.3005,-4.3019,-4.306,-4.3094,-4.3106,-4.293,-4.2907,-4.2885,-4.2855,-4.3102,-4.3102,-4.3286,-4.3288,-4.3289]},{"header":{"parameterUnit":"m.s-1","parameterCategory":1,"la1":30.2991,"la2":30.254,"lo1":-89.0895,"lo2":-89.0444,"dy":0.0017,"dx":0.0017,"nx":28,"ny":28,"refTime":"2023-09-20T03:00:00:Z","depth":0,"parameterNumber":3,"parameterNumberName":"V-component_of_WINDS"},"data":[0,0,0,0,0,0,0,0,0,0,0,0,0,0,0,0,0,0,0,0,0,0,0,0,0,0,0,0,0,0,0,0,0,0,0,0,0,0,0,0,0,0,0,0,0,0,0,0,0,0,0,0,0,0,0,0,0,0,-1.5097,-1.5096,0,-1.4981,-1.498,-1.4978,-1.4877,-1.4876,-1.4874,-1.4873,-1.4754,-1.4752,-1.4749,0,0,0,0,0,0,0,0,0,0,0,0,0,-1.5229,-1.5228,-1.5097,-1.5095,-1.5094,-1.4981,-1.498,-1.4978,-1.4877,-1.4876,-1.4874,-1.4873,-1.4754,-1.4752,-1.4749,0,0,0,0,0,0,0,0,0,0,0,0,0,-1.5149,-1.5227,-1.5097,-1.503,-1.5023,-1.4982,-1.498,-1.4978,-1.4877,-1.4876,-1.4874,-1.4872,-1.4755,-1.4752,-1.4749,-1.4764,0,0,-1.4739,-1.4738,0,0,0,0,0,0,0,0,-1.5153,-1.5144,-1.5041,-1.5035,-1.5026,-1.4942,-1.4982,-1.4906,-1.4878,-1.4933,-1.4873,-1.4871,-1.4818,-1.4809,-1.4791,-1.4759,-1.4754,-1.4739,-1.4737,-1.4736,-1.4735,0,0,0,0,0,0,0,-1.5159,-1.5148,-1.5051,-1.504,-1.5031,-1.5005,-1.4992,-1.4967,-1.4886,-1.4928,-1.492,-1.4908,-1.4813,-1.4794,-1.4788,-1.4752,-1.4739,-1.4736,-1.4734,-1.4733,-1.4727,-1.4729,0,0,0,0,0,0,-1.5175,-1.5154,-1.5055,-1.5047,-1.5087,-1.5004,-1.4989,-1.4971,-1.4886,-1.4872,-1.4909,-1.4903,-1.4801,-1.4791,-1.4783,-1.4797,-1.4736,-1.4733,-1.4731,-1.4726,-1.4728,-1.473,0,0,0,0,0,0,-1.5178,-1.5167,-1.5059,-1.5098,-1.5083,-1.5004,-1.4984,-1.4969,-1.495,-1.4872,-1.4857,-1.4905,-1.4799,-1.4787,-1.477,-1.4791,-1.4731,-1.4729,-1.4724,-1.4726,-1.4729,-1.4824,0,0,0,0,0,0,-1.5183,-1.5169,-1.5174,-1.5099,-1.5081,-1.5049,-1.4985,-1.4968,-1.4945,-1.4937,-1.4865,-1.4851,-1.4797,-1.4775,-1.4767,-1.4786,-1.4726,-1.4721,-1.4725,-1.4728,-1.4819,-1.483,-1.4839,0,0,0,0,0,-1.5188,-1.5205,-1.5175,-1.5164,-1.5086,-1.505,-1.504,-1.4977,-1.4948,-1.4952,-1.4902,-1.4853,-1.479,-1.4775,-1.4764,-1.4782,-1.472,-1.4724,-1.4728,-1.4814,-1.4827,-1.4839,0,0,0,0,0,0,-1.5284,-1.5194,-1.516,-1.5154,-1.5111,-1.5033,-1.5037,-1.4993,-1.4957,-1.4951,-1.4874,-1.4859,-1.485,-1.4814,-1.4798,-1.4793,-1.4748,-1.475,-1.4818,-1.483,-1.484,-1.4849,-1.4723,0,0,0,0,0,-1.5305,-1.5284,-1.5206,-1.5208,-1.5188,-1.5117,-1.5099,-1.5055,-1.5007,-1.4988,-1.4936,-1.4891,-1.4861,-1.4843,-1.4811,-1.4812,-1.4796,-1.482,-1.483,-1.4839,-1.4842,-1.4841,-1.4851,-1.4743,-1.4743,-1.4743,0,0,-1.5347,-1.5295,-1.5287,-1.5226,-1.5187,-1.5167,-1.5102,-1.5083,-1.5068,-1.4984,-1.4966,-1.4926,-1.4871,-1.4864,-1.4858,-1.4834,-1.4868,-1.4844,-1.4851,-1.4849,-1.4846,-1.4857,-1.4866,-1.4745,-1.4745,-1.4744,0,0,-1.5414,-1.5373,-1.537,-1.5333,-1.5276,-1.5228,-1.5228,-1.5157,-1.5129,-1.5108,-1.5046,-1.5026,-1.4975,-1.4939,-1.4914,-1.4969,-1.4923,-1.496,-1.5013,-1.5014,-1.5022,-1.503,-1.5051,-1.5059,-1.4963,-1.4963,-1.4963,0,-1.5474,-1.5442,-1.5375,-1.536,-1.5336,-1.526,-1.5258,-1.5224,-1.516,-1.5145,-1.5118,-1.5054,-1.5011,-1.4995,-1.5009,-1.499,-1.4988,-1.4969,-1.5027,-1.5033,-1.5039,-1.5058,-1.5066,-1.4968,-1.4968,-1.4967,-1.4967,0,-1.5519,-1.5498,-1.5502,-1.5443,-1.5419,-1.541,-1.5342,-1.5325,-1.5283,-1.5239,-1.522,-1.5166,-1.5122,-1.5115,-1.5073,-1.5093,-1.508,-1.5041,-1.4995,-1.5056,-1.5072,-1.5079,-1.4976,-1.4974,-1.4972,-1.4971,0,0,-1.5644,-1.5548,-1.5551,-1.5524,-1.5455,-1.5437,-1.5425,-1.5383,-1.5371,-1.5329,-1.5318,-1.5277,-1.5241,-1.5213,-1.5166,-1.5166,-1.5215,-1.5127,-1.5125,-1.5147,-1.5235,-1.5266,-1.5276,-1.5183,-1.5184,-1.5185,-1.5241,0,-1.5702,-1.5677,-1.5617,-1.5611,-1.5591,-1.5518,-1.5508,-1.5465,-1.5423,-1.54,-1.5352,-1.5326,-1.5279,-1.5262,-1.5259,-1.521,-1.5232,-1.5204,-1.5173,-1.5173,-1.5191,-1.5284,-1.5317,-1.5372,-1.5246,-1.5247,-1.5248,0,-1.5765,-1.5729,-1.5722,-1.5655,-1.5644,-1.5636,-1.5594,-1.5572,-1.5521,-1.5491,-1.546,-1.5408,-1.5392,-1.5349,-1.5326,-1.5309,-1.5292,-1.5266,-1.5266,-1.5262,-1.5216,-1.5285,-1.5387,-1.5397,-1.5257,-1.5257,-1.5256,0,-1.586,-1.5809,-1.5798,-1.5776,-1.5698,-1.5694,-1.5661,-1.5609,-1.5588,-1.555,-1.5536,-1.5497,-1.5476,-1.5446,-1.5386,-1.5359,-1.537,-1.5321,-1.5345,-1.5347,-1.5352,-1.5353,-1.5456,-1.5339,-1.5339,-1.5339,-1.5338,0,-1.5932,-1.593,-1.584,-1.5833,-1.583,-1.576,-1.5758,-1.5718,-1.5673,-1.5657,-1.5591,-1.5579,-1.5498,-1.5476,-1.5428,-1.5418,-1.5408,-1.5383,-1.5371,-1.539,-1.5394,-1.538,-1.5375,-1.5341,-1.534,-1.534,-1.5339,0,-1.6037,-1.5976,-1.596,-1.5888,-1.5869,-1.587,-1.5808,-1.5799,-1.5753,-1.5734,-1.5726,-1.5654,-1.5624,-1.5561,-1.5513,-1.5481,-1.5483,-1.5459,-1.5501,-1.5493,-1.5521,-1.552,-1.562,-1.563,-1.5506,-1.5507,-1.5508,0,-1.6088,-1.6086,-1.6013,-1.5998,-1.5968,-1.5945,-1.5924,-1.5854,-1.5835,-1.5778,-1.5776,-1.5741,-1.571,-1.5666,-1.561,-1.5574,-1.555,-1.5587,-1.5544,-1.5564,-1.5553,-1.5554,-1.5554,-1.5598,-1.5599,-1.5601,-1.5602,0,-1.6185,-1.6155,-1.6127,-1.6089,-1.6065,-1.6031,-1.5994,-1.5985,-1.5907,-1.5888,-1.5858,-1.5834,-1.5786,-1.5753,-1.5709,-1.5674,-1.5626,-1.5616,-1.562,-1.564,-1.5665,-1.5654,-1.5529,-1.5614,-1.5613,-1.5612,-1.5611,-1.5611,-1.6265,-1.626,-1.6209,-1.618,-1.6145,-1.6112,-1.61,-1.6053,-1.6027,-1.5983,-1.5943,-1.5917,-1.5867,-1.5802,-1.5771,-1.5749,-1.5725,-1.5731,-1.5732,-1.5735,-1.5744,-1.5667,-1.5741,-1.574,-1.574,-1.574,-1.5739,0,-1.636,-1.6324,-1.6298,-1.6248,-1.6226,-1.6182,-1.6138,-1.6122,-1.61,-1.6058,-1.6029,-1.5994,-1.5962,-1.5903,-1.5865,-1.586,-1.5837,-1.5852,-1.5853,-1.5846,-1.5767,-1.5768,-1.5872,-1.5872,-1.5872,-1.5872,-1.5872,-1.5872,-1.6407,-1.6397,-1.6361,-1.6333,-1.6296,-1.627,-1.6249,-1.6218,-1.6184,-1.6149,-1.6122,-1.6084,-1.6035,-1.5994,-1.5962,-1.5946,-1.5936,-1.5959,-1.5936,-1.5864,-1.5851,-1.584,-1.584,-1.5957,-1.5957,-1.6017,-1.6017,-1.6018]}]]